Location: Moscow
(38.8570°N, 84.2291°W)
Time: 19:07:28
(UTC+00:00)

Spot 4 Rocket - Pass Details

Date: 15 November 2025
Orbit: 769 x 773 km, 98.8° (Epoch: 06 December)

Event Time Altitude Azimuth Distance (km) Brightness Sun altitude
Rises 23:34:21 0° 149° (SSE) 3,226 7.1 -14.0°
Reaches altitude 10° 23:36:43 10° 144° (SE) 2,303 6.2 -14.5°
Maximum altitude 23:41:34 48° 71° (ENE) 1,005 4.2 -15.4°
Drops below altitude 10° 23:46:27 10° 358° (N) 2,318 6.4 -16.3°
Sets 23:48:49 0° 353° (N) 3,248 7.2 -16.8°
